Weather History for CYXU - October, 2012

Change the Weather History Date:

Saturday, October 6, 2012

  Actual Average Record
Temperature  
Mean Temperature 44 °F -  
Max Temperature 48 °F 60 °F 82 °F (2007)
Min Temperature 41 °F 42 °F 32 °F (1999)
Degree Days  
Heating Degree Days 20    
Moisture  
Dew Point 38 °F    
Average Humidity 76    
Maximum Humidity 93    
Minimum Humidity 52    
Precipitation  
Precipitation 0.00 in - - ()
Sea Level Pressure  
Sea Level Pressure 29.97 in    
Wind  
Wind Speed 10 mph ()    
Max Wind Speed 20 mph    
Max Gust Speed 31 mph    
Visibility 12.3 miles    
Events Rain    
Averages and records for this station are not official NWS values.
T = Trace of Precipitation, MM = Missing Value Source: Averaged Metar Reports

Daily Weather History Graph

Daily Weather History Graph

Search for Another Location

Airport or City:

Trip Planner

Search our weather history database for the weather conditions in past years. The results will help you decide how hot, cold, wet, or windy it might be!

Date:

Astronomy

Oct. 06, 2012 Rise Set
Actual Time 7:28 AM EDT 6:56 PM EDT
Civil Twilight 6:59 AM EDT 7:24 PM EDT
Nautical Twilight 6:26 AM EDT 7:57 PM EDT
Astronomical Twilight 5:53 AM EDT 8:30 PM EDT
Moon 11:03 PM EDT (10/6) 1:28 PM EDT (10/6)
Length of Visible Light 12h 24m
Length of Day
11h 28m
Waning Gibbous, 65% of the Moon is Illuminated
Oct 6
Waning Gibbous
Oct 8
Last Quarter
Oct 15
New
Oct 21
First Quarter
Oct 29
Full

Hourly Weather History & Observations

Time (EDT) Temp. Windchill Dew Point Humidity Pressure Visibility Wind Dir Wind Speed Gust Speed Precip Events Conditions
12:00 AM 46.4 °F 41.9 °F 44.6 °F 93% 29.92 in 3.0 mi WSW 9.2 mph - N/A Rain Light Rain
1:00 AM 44.6 °F 38.8 °F 42.8 °F 93% 29.92 in 3.0 mi West 11.5 mph 17.3 mph N/A Rain Light Rain
2:00 AM 44 °F - 42 °F 89% 29.91 in 10 mi WSW 6.9 mph - -   Overcast
2:00 AM 44.6 °F 40.2 °F 41.0 °F 87% 29.91 in 10.0 mi WSW 8.1 mph - N/A   Overcast
3:00 AM 44.6 °F 40.2 °F 42.8 °F 93% 29.89 in 10.0 mi WSW 8.1 mph - N/A   Overcast
4:00 AM 44.6 °F 38.8 °F 42.8 °F 93% 29.89 in 10.0 mi WSW 11.5 mph - N/A   Overcast
5:00 AM 42.8 °F 36.6 °F 41.0 °F 93% 29.90 in 15.0 mi WSW 11.5 mph - N/A   Scattered Clouds
6:00 AM 42.8 °F 37.5 °F 41.0 °F 93% 29.90 in 15.0 mi West 9.2 mph - N/A   Partly Cloudy
7:00 AM 41.0 °F 35.2 °F 39.2 °F 93% 29.91 in 7.0 mi WSW 9.2 mph - N/A   Partly Cloudy
8:00 AM 41 °F - 40 °F 93% 29.93 in 10 mi West 11.5 mph - -  
8:00 AM 41.0 °F 34.3 °F 39.2 °F 93% 29.93 in 10.0 mi West 11.5 mph - N/A   Partly Cloudy
9:00 AM 42.8 °F 36.6 °F 41.0 °F 93% 29.94 in 10.0 mi West 11.5 mph - N/A   Partly Cloudy
10:00 AM 46.4 °F 39.0 °F 37.4 °F 71% 29.96 in 15.0 mi West 19.6 mph - N/A   Mostly Cloudy
11:00 AM 46.4 °F 39.5 °F 35.6 °F 66% 29.96 in 15.0 mi West 17.3 mph 26.5 mph N/A   Mostly Cloudy
12:00 PM 46.4 °F 39.2 °F 33.8 °F 62% 29.97 in 15.0 mi West 18.4 mph 31.1 mph N/A   Overcast
1:00 PM 46.4 °F 39.8 °F 33.8 °F 62% 29.98 in 15.0 mi West 16.1 mph - N/A   Mostly Cloudy
2:00 PM 46 °F - 34 °F 52% 29.98 in 15 mi West 13.8 mph - -   Overcast
2:00 PM 46.4 °F 40.1 °F 33.8 °F 62% 29.98 in 15.0 mi West 15.0 mph - N/A   Overcast
3:00 PM 48.2 °F - 33.8 °F 58% 29.98 in 15.0 mi West 13.8 mph - N/A   Overcast
4:00 PM 46.4 °F 40.7 °F 33.8 °F 62% 29.99 in 15.0 mi West 12.7 mph - N/A   Overcast
5:00 PM 48.2 °F - 33.8 °F 58% 30.00 in 15.0 mi WSW 11.5 mph 21.9 mph N/A   Mostly Cloudy
6:00 PM 46.4 °F 41.5 °F 33.8 °F 62% 30.01 in 15.0 mi West 10.4 mph - N/A   Mostly Cloudy
7:00 PM 44.6 °F 40.2 °F 33.8 °F 66% 30.02 in 15.0 mi WSW 8.1 mph - N/A   Mostly Cloudy
8:00 PM 45 °F - 35 °F 56% 30.05 in 15 mi WSW 10.4 mph - -   Overcast
8:00 PM 44.6 °F 39.7 °F 33.8 °F 66% 30.05 in 15.0 mi WSW 9.2 mph - N/A   Overcast
9:00 PM 44.6 °F 39.7 °F 35.6 °F 71% 30.07 in 15.0 mi West 9.2 mph - N/A Rain Light Rain Showers
10:00 PM 42.8 °F 40.1 °F 37.4 °F 81% 30.07 in 15.0 mi WSW 4.6 mph - N/A Rain Light Rain Showers
11:00 PM 42.8 °F 35.8 °F 37.4 °F 81% 30.07 in 5.0 mi WSW 13.8 mph - N/A Rain Light Rain Showers